Location: Newark
(50.4348°N, 30.5552°E)
Time: 19:48:54
(UTC+00:00)

Altair - Pass Details

Date: 21 January 2020
Orbit: 1502 x 1682 km, 47.2° (Epoch: 19 February)

Event Time Altitude Azimuth Distance (km) Brightness Sun altitude
Rises 09:32:03 0° 252° (WSW) 4,920 10.3 19.1°
Reaches altitude 10° 09:35:12 10° 251° (WSW) 3,940 9.9 19.2°
Maximum altitude 09:45:18 72° 170° (S) 1,750 8.5 19.4°
Drops below altitude 10° 09:55:17 10° 88° (E) 3,901 9.7 19.5°
Sets 09:58:24 0° 87° (E) 4,870 10.1 19.6°
